Zurück zum Katalog

STARLINK-37232

AktivKommunikationVLEO
NORAD 69515·PAYLOAD·🇺🇸 United States

Gestartet Jun 12, 2026 von Cape Canaveral Space Force Station

Loading…

Nächste Überflüge (nächste 24 Stunden)

TLE

AktuellSource: CelesTrak SupGP

Epoche: Sep 14, 2026, 22:35 UTC

1 69515C 26133H   26257.94145833  .00038751  00000+0  11449-2 0  2571
2 69515  53.1562 255.8120 0001492  93.9301 107.1248 15.34371815    16

Verfolge STARLINK-37232 in Echtzeit mit AllMySat

Download on the App Store